KG6SIB Weather Reports


Display with metric or nautical units.
time (UTC)temp
F
wind
direction
speed
MPH
gust
MPH
rain 1hr
in
rain 24hr
in
rain mn
in
humidity
%
barometer
mb
20260507025136 55 244 0.0 1.0 0.00 0.00 0.00 81 1017.1
20260507024636 56 244 0.0 1.0 0.00 0.00 0.00 80 1017.0
20260507023636 57 244 0.0 4.0 0.00 0.00 0.00 79 1017.3
20260507023136 57 244 0.0 4.0 0.00 0.00 0.00 79 1017.2
20260507022136 58 245 2.0 4.0 0.00 0.00 0.00 78 1017.1
20260507021636 59 245 2.0 5.0 0.00 0.00 0.00 77 1017.4
20260507021136 59 243 0.0 5.0 0.00 0.00 0.00 77 1017.4
20260507020636 59 242 4.0 7.0 0.00 0.00 0.00 76 1017.3
20260507020135 60 231 4.0 7.0 0.00 0.00 0.00 75 1017.4
20260507015635 60 234 1.0 5.0 0.00 0.00 0.00 75 1016.6
20260507015135 60 234 0.0 5.0 0.00 0.00 0.00 74 1016.6
20260507014635 61 225 0.0 6.0 0.00 0.00 0.00 74 1016.8
20260507014136 61 232 5.0 6.0 0.00 0.00 0.00 73 1016.8
20260507013635 61 241 0.0 6.0 0.00 0.00 0.00 73 1016.7
20260507013135 62 240 2.0 7.0 0.00 0.00 0.00 71 1016.6
20260507012635 62 248 2.0 7.0 0.00 0.00 0.00 71 1016.7
20260507011635 63 244 1.0 7.0 0.00 0.00 0.00 70 1017.1
20260507011135 63 217 0.0 7.0 0.00 0.00 0.00 70 1017.1
20260507010635 63 232 1.0 11.0 0.00 0.00 0.00 69 1017.0
20260507010135 64 214 6.0 11.0 0.00 0.00 0.00 67 1017.0
20260507005635 64 234 3.0 9.0 0.00 0.00 0.00 66 1016.5
20260507005135 65 223 5.0 9.0 0.00 0.00 0.00 66 1016.5
20260507004635 65 254 0.0 8.0 0.00 0.00 0.00 65 1016.5
20260507004135 65 235 0.0 8.0 0.00 0.00 0.00 64 1016.6
20260507003635 66 241 1.0 9.0 0.00 0.00 0.00 65 1016.8
20260507003135 66 222 4.0 10.0 0.00 0.00 0.00 63 1016.7
20260507002634 66 257 3.0 10.0 0.00 0.00 0.00 63 1016.6
20260507002135 66 225 2.0 9.0 0.00 0.00 0.00 62 1016.6
20260507001635 67 230 2.0 11.0 0.00 0.00 0.00 61 1016.6
20260507001134 67 211 2.0 11.0 0.00 0.00 0.00 63 1016.7
20260507000635 67 195 3.0 9.0 0.00 0.00 0.00 61 1016.6
20260507000134 67 257 2.0 13.0 0.00 0.00 0.00 61 1016.5
20260506235634 68 161 4.0 13.0 0.00 0.00 0.00 59 1016.8
20260506235134 69 237 4.0 11.0 0.00 0.00 0.00 59 1016.9
20260506234634 69 238 6.0 12.0 0.00 0.00 0.00 59 1016.9
20260506234134 69 218 3.0 12.0 0.00 0.00 0.00 59 1016.9
20260506233634 69 202 1.0 10.0 0.00 0.00 0.00 60 1017.0
20260506233134 69 221 5.0 10.0 0.00 0.00 0.00 59 1016.9
20260506232634 69 244 5.0 9.0 0.00 0.00 0.00 59 1016.9
20260506232134 69 227 6.0 10.0 0.00 0.00 0.00 59 1016.9
20260506231634 69 242 1.0 10.0 0.00 0.00 0.00 57 1016.9
20260506231134 70 227 5.0 12.0 0.00 0.00 0.00 56 1017.0
20260506230633 70 239 0.0 12.0 0.00 0.00 0.00 58 1017.1
20260506230133 70 221 3.0 12.0 0.00 0.00 0.00 56 1017.0
20260506225634 71 202 3.0 12.0 0.00 0.00 0.00 58 1017.4
20260506225133 70 254 1.0 10.0 0.00 0.00 0.00 55 1017.0
20260506224634 70 227 0.0 10.0 0.00 0.00 0.00 56 1017.1
20260506224134 71 78 1.0 12.0 0.00 0.00 0.00 53 1017.4
20260506223634 71 220 2.0 14.0 0.00 0.00 0.00 54 1017.5
20260506223134 71 254 5.0 14.0 0.00 0.00 0.00 54 1017.5
20260506222633 71 250 4.0 11.0 0.00 0.00 0.00 53 1017.6
20260506222133 71 329 2.0 13.0 0.00 0.00 0.00 52 1017.8
20260506221633 71 219 7.0 13.0 0.00 0.00 0.00 52 1017.7
20260506221133 71 253 13.0 13.0 0.00 0.00 0.00 52 1017.8
20260506220633 71 196 4.0 11.0 0.00 0.00 0.00 53 1017.8
20260506220133 70 328 3.0 11.0 0.00 0.00 0.00 49 1017.6
20260506215633 70 270 1.0 10.0 0.00 0.00 0.00 51 1017.9
20260506215133 70 321 0.0 13.0 0.00 0.00 0.00 51 1017.9
20260506214633 70 192 1.0 13.0 0.00 0.00 0.00 49 1017.8
20260506214132 71 198 4.0 9.0 0.00 0.00 0.00 49 1018.2
20260506213132 70 48 1.0 12.0 0.00 0.00 0.00 51 1018.2
20260506212632 70 260 9.0 12.0 0.00 0.00 0.00 50 1018.2
20260506212133 69 328 1.0 9.0 0.00 0.00 0.00 53 1018.3
20260506211633 70 205 4.0 9.0 0.00 0.00 0.00 50 1018.2
20260506211132 70 209 4.0 8.0 0.00 0.00 0.00 51 1018.5
20260506210632 70 313 2.0 8.0 0.00 0.00 0.00 49 1018.4
20260506210132 70 240 3.0 12.0 0.00 0.00 0.00 50 1018.5
20260506205632 70 240 5.0 12.0 0.00 0.00 0.00 50 1018.8
20260506205132 69 229 1.0 10.0 0.00 0.00 0.00 52 1018.6
20260506204132 69 225 5.0 12.0 0.00 0.00 0.00 52 1018.6
20260506203632 68 271 7.0 9.0 0.00 0.00 0.00 53 1018.6
20260506203132 68 275 3.0 10.0 0.00 0.00 0.00 54 1018.6
20260506202631 68 244 3.0 12.0 0.00 0.00 0.00 53 1018.7
20260506202131 68 259 4.0 12.0 0.00 0.00 0.00 53 1018.7
20260506201631 68 231 10.0 12.0 0.00 0.00 0.00 51 1018.6
20260506201131 68 251 5.0 10.0 0.00 0.00 0.00 57 1018.8
20260506200631 68 129 4.0 12.0 0.00 0.00 0.00 52 1018.9
20260506200132 68 207 3.0 14.0 0.00 0.00 0.00 57 1018.9
20260506195631 68 277 6.0 14.0 0.00 0.00 0.00 53 1019.4
20260506195131 67 355 2.0 14.0 0.00 0.00 0.00 57 1019.2
20260506194631 67 176 2.0 12.0 0.00 0.00 0.00 58 1019.3
20260506194131 67 194 3.0 12.0 0.00 0.00 0.00 58 1019.3
20260506193631 66 197 1.0 12.0 0.00 0.00 0.00 56 1019.3
20260506192631 67 246 8.0 8.0 0.00 0.00 0.00 59 1019.5
20260506191631 65 344 2.0 12.0 0.00 0.00 0.00 63 1019.5
20260506191131 65 273 2.0 12.0 0.00 0.00 0.00 59 1019.4
20260506190631 65 244 11.0 12.0 0.00 0.00 0.00 60 1019.5
20260506190131 65 244 5.0 11.0 0.00 0.00 0.00 60 1019.5
20260506185630 64 172 2.0 12.0 0.00 0.00 0.00 62 1019.8
20260506185131 64 274 0.0 13.0 0.00 0.00 0.00 59 1019.7
20260506184630 65 215 5.0 13.0 0.00 0.00 0.00 58 1020.1
20260506184130 65 289 1.0 10.0 0.00 0.00 0.00 62 1020.1
20260506183631 64 223 1.0 10.0 0.00 0.01 0.00 61 1019.8
20260506183130 65 249 4.0 8.0 0.00 0.01 0.00 63 1020.1
20260506182630 64 226 2.0 8.0 0.00 0.03 0.00 63 1019.9
20260506182130 63 236 2.0 10.0 0.00 0.07 0.00 63 1019.8
20260506181630 63 278 7.0 10.0 0.00 0.08 0.00 62 1019.9
20260506181130 62 238 0.0 10.0 0.00 0.08 0.00 63 1019.7
20260506180630 62 223 3.0 10.0 0.00 0.08 0.00 64 1019.7
20260506180130 62 211 3.0 8.0 0.00 0.08 0.00 64 1019.7
20260506175630 62 243 3.0 8.0 0.00 0.08 0.00 64 1019.7
20260506175130 62 234 1.0 9.0 0.00 0.09 0.00 64 1019.7
20260506173630 61 214 6.0 9.0 0.00 0.10 0.00 69 1019.8
20260506173130 60 246 4.0 8.0 0.00 0.10 0.00 67 1019.5
20260506172629 60 230 3.0 9.0 0.00 0.10 0.00 66 1019.6
20260506171630 59 250 2.0 10.0 0.00 0.10 0.00 71 1019.8
20260506170629 58 244 4.0 9.0 0.00 0.10 0.00 71 1019.3
20260506170130 59 229 5.0 9.0 0.00 0.11 0.00 68 1019.5
20260506165630 59 252 4.0 9.0 0.00 0.11 0.00 69 1019.5
20260506164629 58 267 2.0 9.0 0.00 0.12 0.00 71 1019.3
20260506164129 58 242 4.0 9.0 0.00 0.12 0.00 69 1019.3
20260506163129 58 245 7.0 10.0 0.00 0.13 0.00 71 1019.3
20260506162629 58 232 2.0 8.0 0.00 0.13 0.00 73 1019.5
20260506162129 57 192 2.0 8.0 0.00 0.14 0.00 72 1019.1
20260506161629 57 223 0.0 4.0 0.00 0.14 0.00 75 1019.0
20260506161129 56 190 1.0 4.0 0.00 0.15 0.00 76 1019.1
20260506160629 55 191 0.0 4.0 0.00 0.16 0.00 76 1018.9
20260506160129 54 176 1.0 5.0 0.00 0.19 0.00 79 1018.9
20260506155629 54 240 1.0 6.0 0.00 0.20 0.00 78 1018.7
20260506155129 53 243 4.0 6.0 0.00 0.21 0.00 80 1018.7
20260506154629 52 197 1.0 5.0 0.00 0.21 0.00 84 1018.6
20260506154129 51 238 1.0 5.0 0.00 0.22 0.00 88 1018.4
20260506153628 50 178 0.0 3.0 0.00 0.22 0.00 90 1018.4
20260506153129 49 149 0.0 0.0 0.00 0.22 0.00 93 1018.1
20260506152629 48 149 0.0 0.0 0.00 0.22 0.00 93 1018.2
20260506152128 47 149 0.0 0.0 0.00 0.22 0.00 94 1017.9
20260506151628 47 128 0.0 0.0 0.00 0.22 0.00 94 1017.9
20260506151128 46 128 0.0 0.0 0.00 0.22 0.00 94 1017.8
20260506150628 45 128 0.0 0.0 0.00 0.22 0.00 94 1017.7
20260506150129 45 128 0.0 0.0 0.00 0.22 0.00 94 1017.7
20260506145628 44 128 0.0 0.0 0.00 0.22 0.00 94 1017.7
20260506145128 44 91 0.0 0.0 0.00 0.22 0.00 94 1017.7
20260506144628 44 91 0.0 0.0 0.00 0.22 0.00 94 1017.6
20260506144128 44 91 0.0 0.0 0.00 0.22 0.00 94 1017.7
20260506143628 43 91 0.0 1.0 0.00 0.22 0.00 94 1017.6
20260506143128 43 91 0.0 3.0 0.00 0.22 0.00 94 1017.5
20260506142628 42 91 1.0 4.0 0.00 0.22 0.00 94 1017.2
20260506141628 41 91 3.0 4.0 0.00 0.22 0.00 94 1017.2
20260506141127 40 74 2.0 4.0 0.00 0.22 0.00 94 1016.8
20260506140628 40 74 3.0 4.0 0.00 0.23 0.00 94 1016.8
20260506140128 39 74 4.0 7.0 0.00 0.24 0.00 94 1016.8
20260506135627 38 71 3.0 7.0 0.00 0.24 0.00 94 1016.8
20260506135127 38 81 4.0 7.0 0.00 0.24 0.00 94 1016.9
20260506134627 37 53 3.0 7.0 0.00 0.25 0.00 94 1016.5
20260506134128 36 69 2.0 5.0 0.00 0.25 0.00 94 1016.4
20260506133627 35 42 3.0 5.0 0.00 0.25 0.00 93 1016.1
20260506133127 35 53 2.0 5.0 0.00 0.25 0.00 93 1016.2
20260506132627 35 28 3.0 5.0 0.00 0.25 0.00 93 1016.1
20260506132127 35 55 3.0 6.0 0.00 0.25 0.00 93 1016.0
20260506131627 35 46 3.0 6.0 0.00 0.25 0.00 93 1016.1
20260506130127 34 44 3.0 5.0 0.00 0.27 0.00 93 1015.9
20260506125127 34 32 3.0 5.0 0.00 0.27 0.00 93 1016.0
20260506124627 35 39 3.0 5.0 0.00 0.27 0.00 93 1016.0
20260506124127 35 42 4.0 5.0 0.00 0.27 0.00 93 1015.9
20260506123127 34 32 3.0 5.0 0.00 0.29 0.00 93 1015.7
20260506122626 34 75 3.0 5.0 0.00 0.29 0.00 93 1015.7
20260506121627 35 42 4.0 5.0 0.00 0.29 0.00 93 1015.7
20260506121127 35 65 3.0 5.0 0.00 0.29 0.00 92 1015.7
20260506120626 35 36 4.0 5.0 0.00 0.30 0.00 93 1015.6
20260506120126 35 55 4.0 5.0 0.00 0.31 0.00 93 1015.6
20260506115626 35 38 3.0 5.0 0.00 0.33 0.00 93 1016.0
20260506115126 35 53 3.0 5.0 0.00 0.34 0.00 93 1015.9
20260506114626 36 51 3.0 5.0 0.00 0.34 0.00 93 1016.0
20260506114126 35 74 2.0 5.0 0.00 0.34 0.00 93 1015.8
20260506113626 36 61 2.0 5.0 0.00 0.34 0.00 93 1016.0
20260506113126 36 12 4.0 5.0 0.00 0.34 0.00 93 1015.9
20260506111626 36 74 4.0 5.0 0.00 0.34 0.00 92 1015.8
20260506110625 36 69 4.0 6.0 0.00 0.35 0.00 92 1015.8
20260506110126 36 65 5.0 6.0 0.00 0.35 0.00 92 1015.8
20260506105126 36 32 4.0 5.0 0.00 0.35 0.00 92 1016.3
20260506104626 36 52 3.0 5.0 0.00 0.35 0.00 92 1016.2
20260506104126 36 32 3.0 5.0 0.00 0.35 0.00 92 1016.4
20260506103625 36 19 3.0 6.0 0.00 0.35 0.00 92 1016.3
20260506103125 36 42 5.0 6.0 0.00 0.35 0.00 92 1016.2
20260506102625 36 50 2.0 4.0 0.00 0.36 0.00 92 1016.2
20260506102125 36 56 3.0 5.0 0.00 0.37 0.00 92 1016.2
20260506101625 36 65 2.0 5.0 0.00 0.37 0.00 92 1016.1
20260506101125 36 62 3.0 5.0 0.00 0.37 0.00 92 1016.1
20260506100625 36 44 4.0 4.0 0.00 0.37 0.00 92 1016.0
20260506100125 37 30 2.0 4.0 0.00 0.37 0.00 91 1016.1
20260506095625 37 26 3.0 4.0 0.00 0.38 0.00 91 1015.8
20260506095125 37 36 3.0 4.0 0.00 0.38 0.00 91 1015.9
20260506094125 37 34 4.0 4.0 0.00 0.39 0.00 91 1015.8
20260506093624 37 37 2.0 4.0 0.00 0.39 0.00 91 1015.9
20260506092625 38 22 3.0 4.0 0.00 0.41 0.00 91 1016.0
20260506092125 38 21 2.0 4.0 0.00 0.41 0.00 91 1016.1
20260506091124 38 15 4.0 5.0 0.00 0.43 0.00 91 1016.1
20260506090624 38 19 4.0 5.0 0.00 0.43 0.00 91 1016.1
20260506090125 38 163 1.0 5.0 0.00 0.44 0.00 91 1016.1
20260506085625 39 194 1.0 3.0 0.00 0.44 0.00 91 1015.7
20260506085124 39 198 1.0 3.0 0.00 0.45 0.00 91 1015.8
20260506084624 39 201 1.0 3.0 0.00 0.45 0.00 90 1015.9
20260506084124 40 232 0.0 0.0 0.00 0.45 0.00 91 1015.9
20260506083624 40 232 0.0 0.0 0.00 0.45 0.00 91 1016.0
20260506082624 41 232 0.0 0.0 0.00 0.45 0.00 91 1016.3
20260506082124 41 232 0.0 0.0 0.00 0.45 0.00 91 1016.4
20260506081624 41 232 0.0 0.0 0.00 0.45 0.00 91 1016.6
20260506081124 41 232 0.0 0.0 0.00 0.45 0.00 91 1016.5
20260506080624 41 232 0.0 0.0 0.00 0.45 0.00 91 1016.6
20260506080124 42 232 0.0 0.0 0.00 0.45 0.00 91 1016.6
20260506073123 44 232 0.0 0.0 0.00 0.45 0.00 91 1016.8
20260506072624 45 232 0.0 1.0 0.00 0.45 0.00 92 1016.9
20260506071623 45 232 0.0 3.0 0.00 0.45 0.00 92 1017.0
20260506071123 45 232 0.0 5.0 0.00 0.45 0.00 92 1017.0
20260506070623 45 232 2.0 5.0 0.00 0.45 0.00 92 1017.0
20260506070154 45 237 2.0 3.0 0.00 0.45 0.00 91 1016.9
20260506062123 45 238 0.0 3.0 0.00 0.45 0.45 91 1016.5
20260506061623 45 238 0.0 4.0 0.00 0.45 0.45 91 1016.5
20260506061122 45 238 2.0 4.0 0.00 0.45 0.45 91 1016.4
20260506060623 45 238 2.0 4.0 0.00 0.45 0.45 91 1016.6
20260506060123 46 238 1.0 4.0 0.00 0.45 0.45 91 1016.8
20260506051122 46 240 0.0 5.0 0.00 0.45 0.45 90 1016.7
20260506050622 46 243 0.0 5.0 0.00 0.45 0.45 90 1016.7
20260506050152 46 246 3.0 5.0 0.00 0.45 0.45 90 1016.7
20260506044622 46 236 1.0 6.0 0.00 0.45 0.45 89 1016.3
20260506044121 46 235 1.0 5.0 0.00 0.45 0.45 89 1016.3
20260506043622 46 242 1.0 8.0 0.00 0.45 0.45 88 1016.1
20260506042622 46 240 4.0 5.0 0.00 0.45 0.45 88 1016.1
20260506041621 46 229 0.0 7.0 0.00 0.45 0.45 88 1016.0
20260506040622 46 239 0.0 3.0 0.00 0.45 0.45 87 1015.9
20260506040152 46 238 2.0 3.0 0.00 0.45 0.45 87 1015.8
20260506035652 46 240 0.0 4.0 0.00 0.45 0.45 87 1015.8
20260506034651 47 225 0.0 6.0 0.00 0.45 0.45 87 1015.6
20260506034151 47 223 3.0 6.0 0.00 0.45 0.45 87 1015.5
20260506033651 47 242 0.0 5.0 0.00 0.45 0.45 86 1015.5
20260506033151 47 244 0.0 5.0 0.00 0.45 0.45 86 1015.4
20260506032151 47 240 1.0 6.0 0.00 0.45 0.45 86 1015.3
20260506031651 47 240 2.0 6.0 0.00 0.45 0.45 86 1015.2
20260506031151 47 240 4.0 8.0 0.00 0.45 0.45 86 1015.2